Miscellaneous Local Product
Issued by NWS North Platte, NE

Home | Current Version | Previous Version | Text Only | Print | Product List | Glossary On
Versions: 1 2 3 4 5 6 7 8 9 10 11 12 13 14 15 16 17 18 19 20 21 22 23 24 25 26 27 28 29 30 31 32 33 34 35 36 37 38 39 40 41 42 43 44 45 46 47 48 49 50
711
AXUS43 KLBF 111910
MISLBF


WESTERN AND NORTH CENTRAL NEBRASKA HOURLY WEATHER ROUNDUP
NATIONAL WEATHER SERVICE NORTH PLATTE NE
100 PM CST THU FEB 11 2016

NOTE: "FAIR" INDICATES FEW OR NO CLOUDS BELOW 12,000 FEET WITH NO
SIGNIFICANT WEATHER AND/OR OBSTRUCTIONS TO VISIBILITY.

NOTE: STATIONS NOT REPORTING VARIABLES SUCH AS SKY/WEATHER OR
PRESSURE ARE PROVIDED BY THE NEBRASKA DEPARTMENT OF
ROADS...RAWS...AND APRS NETWORKS...AND ARE NOT UNDER
NATIONAL WEATHER SERVICE QUALITY CONTROL.

...OBSERVATIONS IN AND NEAR THE EASTERN PANHANDLE OF NEBRASKA...

CITY           SKY/WX    TMP DP  RH WIND       PRES   REMARKS
PINE RIDGE     SUNNY     54  29  38 W8        30.03F
CHADRON        SUNNY     56  30  37 W18G25    30.05F
ALLIANCE       SUNNY     46  33  60 W13       30.07S
SIDNEY         CLOUDY    51  30  44 NW14      30.11S
BIG SPRINGS      N/A     49  37  63 W7          N/A
$$

...OBSERVATIONS IN NORTH CENTRAL NEBRASKA...

CITY           SKY/WX    TMP DP  RH WIND       PRES   REMARKS
VALENTINE      MOSUNNY   43  32  65 SW14      29.98F
THEDFORD       CLOUDY    49  33  54 SW8       30.03F
AINSWORTH      MOSUNNY   39  31  75 S16       30.01F WCI  30
O`NEILL        FOG       28  26  96 S12       30.09S VSB 3/4 WCI  17
ORD            CLOUDY    28  27  96 S10       30.10F FOG     WCI  19
BROKEN BOW     CLOUDY    32  30  92 S10G25    30.08F WCI  24
BUTTE            N/A     26  24  92 SE12        N/A  WCI  16
CHAMBERS         N/A     29  26  89 S5G16       N/A  WCI  24
EWING            N/A     25  23  92 S9G18       N/A  WCI  16
$$

...OBSERVATIONS IN SOUTHWEST NEBRASKA AND FAR NORTHEAST COLORADO...

CITY           SKY/WX    TMP DP  RH WIND       PRES   REMARKS
HOLYOKE        FAIR      54  32  43 NW10      30.08F
IMPERIAL       SUNNY     51  29  42 W7        30.07F
OGALLALA       MOSUNNY   48  30  49 NW14      30.06F
NORTH PLATTE   CLOUDY    36  29  75 S7        30.06F WCI  30
MCCOOK         SUNNY     37  31  78 SE7       30.10F WCI  32
LEXINGTON      CLOUDY    32  28  86 S9        30.11S WCI  24
PAXTON           N/A     45  37  73 W3          N/A
STAPLETON        N/A     37  30  77 CALM        N/A
GOTHENBURG       N/A     33  28  81 S6          N/A  WCI  27
CALLAWAY         N/A     33  30  90 S13         N/A  WCI  24
$$

...OBSERVATIONS IN CENTRAL LINCOLN COUNTY AREA...

CITY           SKY/WX    TMP DP  RH WIND       PRES   REMARKS
N.P. AIRPORT   CLOUDY    36  29  75 S7        30.06F WCI  30
N.P. DOWNTOWN    N/A     39  32  76 MISG        N/A
N.P. SOUTHEAST   N/A     39  32  76 SW5         N/A
N.P. HILLCREST   N/A     39  33  79 SW3         N/A
$$

...SOME OBSERVATIONS FROM AROUND THE REGION...

CITY           SKY/WX    TMP DP  RH WIND       PRES   REMARKS
DENVER         CLOUDY    61  22  22 W18G24    30.12F
LARAMIE        CLOUDY    48  24  39 MISG      30.21S
CHEYENNE       CLOUDY    53  22  29 NW23G36   30.14F
SCOTTSBLUFF    CLOUDY    58  27  30 NW17      30.11S
RAPID CITY     SUNNY     57  25  29 NW40G52   29.99S
BISMARCK       LGT SNOW  25  18  74 NE5       30.14R WCI  19
PIERRE         CLOUDY    29  24  82 SE10      30.06F WCI  20
WINNER         CLOUDY    35  26  69 SE10      30.04F WCI  27
SIOUX FALLS    LGT SNOW  17  10  74 S9        30.18F WCI   6
OMAHA          CLOUDY    21  10  62 S9        30.27F WCI  11
GRAND ISLAND   CLOUDY    27  23  85 S10       30.17F FOG     WCI  17
KANSAS CITY    PTSUNNY   34  21  59 NE3       30.26F
WICHITA        MOSUNNY   43  23  45 CALM      30.21F
OKLAHOMA CITY  MOSUNNY   57  32  38 VRB7      30.16F
LIBERAL        SUNNY     55  34  44 S8        30.18F
HAYS           MOSUNNY   34  21  60 S5        30.17F WCI  30
GOODLAND       CLOUDY    55  27  34 SW18      30.09F
$$




USA.gov is the U.S. government's official web portal to all federal, state and local government web resources and services.